Location: Ajisawe
(8.4333°N, 4.3833°E)
Time: 00:38:14
(UTC+00:00)

A-11 Canister half - Pass Details

Date: 26 April 2021
Orbit: 1514 x 1685 km, 47.2° (Epoch: 15 May)

Event Time Altitude Azimuth Distance (km) Brightness Sun altitude
Rises 00:33:53 0° 347° (NNW) 4,804 11.9 -64.3°
Reaches altitude 10° 00:40:51 10° 21° (NNE) 3,868 11.3 -63.4°
Maximum altitude 00:43:13 11° 35° (NE) 3,804 11.3 -63.1°
Drops below altitude 10° 00:45:36 10° 50° (NE) 3,897 11.4 -62.7°
Sets 00:52:39 0° 83° (E) 4,918 11.9 -61.6°
